Theta_e
293 293 293 293 292 292 291 291 291 292 292 293 294 294 294 294 294 295 295 302 307 310 312 316 318 318 318 319 321 325 327 325 324 323 323 324 324 322 321 320 321 321 321
293 293 292 292 291 291 291 291 291 291 291 292 293 294 294 294 294 294 295 296 306 309 312 318 316 318 319 318 319 320 323 319 318 318 318 318 317 317 316 316 317 317 317
293 292 292 291 291 291 291 290 290 290 290 291 291 292 293 294 294 295 295 296 300 306 312 313 315 317 318 320 319 318 318 316 314 314 314 313 314 314 314 315 315 314 314
293 291 291 290 291 290 290 289 289 289 289 289 289 290 291 292 293 293 295 295 298 301 303 310 311 312 314 315 315 315 314 314 313 312 311 312 312 312 312 312 313 313 313
293 291 290 290 290 290 289 289 288 288 287 288 289 290 291 291 291 294 293 295 297 298 297 304 304 305 308 310 313 313 313 312 311 310 310 310 309 310 310 311 311 311 312
293 291 290 290 290 289 288 288 287 287 287 287 290 290 289 289 290 290 291 295 296 296 295 295 294 295 303 306 307 308 311 311 309 308 308 308 308 308 309 309 310 311 311
292 290 290 289 289 288 287 288 287 287 286 287 286 287 288 290 290 290 291 292 294 294 292 292 292 292 293 303 305 308 308 309 308 307 306 307 307 308 308 309 309 309 310
291 290 289 288 288 287 287 287 287 286 286 287 285 285 284 287 290 290 291 291 290 291 291 291 291 291 290 292 296 303 303 304 304 305 305 305 305 306 307 308 308 308 309
291 290 289 288 287 287 286 286 286 286 284 286 286 285 282 283 284 288 288 289 289 288 288 289 290 291 290 290 292 295 297 298 301 301 303 303 305 306 307 308 309 309 309
290 289 289 287 287 286 286 286 287 286 285 284 285 288 286 285 283 283 286 286 287 288 287 284 286 289 288 288 292 293 294 295 297 299 300 301 302 305 306 308 308 309 309
289 289 288 287 286 285 285 285 285 284 284 283 283 283 283 284 284 283 282 283 284 281 281 283 282 282 287 286 286 288 292 294 296 297 297 299 300 302 304 306 307 308 308
286 287 287 286 286 285 285 284 284 284 283 282 283 283 283 282 282 282 281 281 280 284 286 290 289 287 284 282 288 289 290 292 294 296 296 297 298 300 301 302 304 305 306
283 284 285 284 284 285 285 284 283 283 282 282 282 281 282 282 283 282 281 279 277 277 278 280 287 289 289 288 288 289 289 290 292 294 295 296 297 298 298 299 300 302 302
285 285 284 285 284 285 284 284 283 282 282 281 281 278 279 281 283 284 281 281 281 275 275 279 277 283 287 287 288 289 284 289 290 292 294 295 296 296 296 297 298 298 299
284 283 284 283 282 282 282 282 279 278 279 279 278 283 285 285 285 286 285 285 281 278 278 282 278 284 286 286 286 283 283 287 290 291 292 294 294 295 295 295 295 296 297
283 281 280 279 277 277 277 278 276 275 278 277 283 284 284 284 284 285 284 284 284 282 275 271 284 286 285 285 285 282 283 287 288 289 291 292 293 294 294 294 294 294 295
282 280 279 277 277 276 275 275 276 278 279 279 280 283 283 284 283 283 283 283 283 283 280 280 274 283 282 282 283 278 279 281 280 287 290 291 293 292 293 292 293 293 293
279 279 278 277 277 277 277 277 276 277 277 278 278 282 282 283 282 283 283 282 282 283 281 280 282 282 282 274 274 273 280 282 280 285 288 291 292 291 291 292 292 292 292
280 279 279 279 278 279 278 279 279 278 279 281 281 281 281 282 281 282 282 282 282 283 282 281 281 282 282 275 275 276 276 277 281 285 287 288 291 289 290 290 292 292 291
279 279 278 279 280 280 280 281 281 280 280 281 281 281 282 282 282 282 282 282 282 281 281 281 280 281 281 281 272 274 276 277 279 281 283 285 287 288 288 288 289 291 291
278 278 278 278 279 280 281 280 280 280 280 280 280 281 282 282 284 283 282 281 281 280 280 279 279 279 279 278 273 273 275 275 276 275 276 277 278 279 279 282 285 290 290
276 276 276 277 278 280 282 284 282 280 280 280 279 280 281 282 283 285 286 285 282 279 278 278 278 277 278 275 273 272 270 271 273 274 274 276 276 277 278 277 284 289 290
275 275 275 277 277 278 282 283 284 281 280 280 280 281 281 282 282 282 284 285 285 284 283 278 276 276 274 276 275 271 270 270 271 273 272 273 273 275 278 279 286 289 289
274 274 274 275 276 277 281 282 283 282 281 281 281 281 281 281 281 280 280 279 280 281 282 282 280 279 278 277 277 275 272 269 269 270 270 270 269 272 274 276 285 287 288
274 275 277 276 276 277 280 282 282 281 281 281 282 282 281 280 281 282 280 278 277 278 281 284 285 285 285 285 282 275 276 276 276 270 269 270 270 270 270 272 274 283 286
275 276 276 277 277 277 281 282 282 281 280 280 281 281 282 281 282 283 280 279 277 278 279 276 276 281 284 283 286 283 280 278 277 273 272 272 268 269 269 270 270 271 274
Wind_Speed
4 4 3 3 3 2 2 2 2 3 4 5 4 4 4 4 4 2 2 7 7 10 12 11 8 6 7 7 2 4 7 8 8 7 6 6 6 5 5 4 4 5 4
5 5 4 3 3 2 2 2 2 3 3 3 4 4 4 4 4 4 3 3 7 9 11 11 5 6 5 3 5 7 3 1 6 7 7 6 5 4 3 4 3 4 3
6 6 5 4 4 2 3 2 2 2 2 3 3 4 4 4 4 4 3 2 3 7 8 7 8 9 9 10 8 7 8 7 3 6 5 5 5 4 3 3 3 3 2
6 5 4 4 4 3 3 2 2 1 1 2 3 4 4 4 4 4 3 1 1 1 5 8 9 10 10 8 8 6 7 5 5 5 5 4 4 4 3 3 3 4 4
6 5 4 4 5 3 3 2 1 2 2 3 4 4 4 4 4 2 4 2 2 2 2 6 8 9 9 8 10 8 6 4 5 5 5 6 5 5 4 5 5 4 5
6 5 4 5 4 3 3 2 2 1 0 2 4 5 4 4 3 3 3 1 3 3 3 4 4 4 6 4 4 3 5 6 5 5 6 5 6 5 5 6 6 5 4
6 5 4 4 4 4 3 3 2 2 1 2 3 3 3 4 3 2 0 1 3 3 4 3 2 2 3 4 5 5 6 6 6 6 6 6 7 8 6 6 6 6 7
7 6 6 5 5 4 4 3 2 2 0 1 2 1 3 4 3 4 2 2 3 2 4 3 3 3 3 3 3 5 7 7 6 7 7 6 6 6 7 7 7 6 6
7 7 7 6 6 4 4 3 3 4 3 0 1 3 0 2 2 3 3 2 2 1 2 2 3 3 3 3 5 5 3 5 6 6 7 7 8 7 7 7 8 8 8
7 6 6 6 6 4 5 4 3 3 3 3 0 1 1 2 1 3 2 2 1 2 2 1 2 3 3 3 4 3 3 5 6 6 6 7 7 8 8 7 7 7 7
6 6 6 6 5 4 4 5 4 4 2 2 2 1 1 1 1 2 2 3 3 1 1 2 3 2 2 2 2 1 3 6 6 5 6 7 7 8 8 8 7 7 7
4 6 6 6 5 5 5 4 4 5 4 2 2 3 2 2 2 2 2 2 2 3 2 2 3 4 2 2 2 3 4 5 7 7 7 8 8 8 7 7 7 7 7
3 6 6 6 4 5 5 5 5 5 5 4 4 2 2 2 2 1 2 1 1 3 3 2 1 4 4 1 3 4 5 6 7 8 8 9 9 8 6 6 6 6 6
7 7 6 6 6 6 5 5 3 3 5 4 5 3 2 2 2 2 2 2 2 3 3 4 1 1 3 2 2 5 4 7 8 8 9 8 8 7 7 6 5 4 4
5 6 6 6 5 5 5 5 3 4 4 4 4 3 2 1 2 2 2 1 3 3 3 3 0 1 2 1 1 2 4 8 9 9 8 8 8 7 6 4 3 3 2
6 6 6 6 5 5 5 5 3 3 5 3 3 4 3 2 2 2 2 2 2 2 2 2 2 1 1 2 3 2 4 7 9 9 8 8 8 7 6 3 2 3 1
7 7 7 6 6 6 5 4 4 5 5 4 3 4 5 5 3 3 3 3 3 4 5 2 2 1 2 3 4 3 3 4 4 9 8 8 8 7 7 5 5 4 3
5 7 6 6 5 5 5 6 6 5 5 5 4 6 7 5 6 5 5 6 5 5 4 7 2 1 1 2 4 4 3 2 3 7 9 9 8 7 7 7 7 7 6
6 5 6 6 6 6 6 6 6 6 6 6 6 6 6 6 6 5 6 6 5 5 5 5 4 2 2 0 3 3 3 2 2 8 9 10 10 6 4 6 10 10 9
6 5 5 6 6 6 6 6 6 6 6 5 6 7 6 7 7 7 7 7 5 5 5 5 4 4 2 1 1 2 4 1 2 1 4 4 6 6 8 11 13 12 11
5 5 5 4 5 5 5 6 6 6 6 6 6 7 7 8 12 10 5 6 6 5 5 6 6 4 4 2 3 1 2 2 3 1 2 2 1 2 5 8 9 10 12
4 4 4 6 6 4 11 14 9 6 7 7 6 7 7 8 11 16 16 14 10 7 9 7 7 8 8 3 2 2 2 1 3 1 1 3 2 3 4 3 9 11 13
3 4 5 5 7 5 13 15 14 6 7 7 7 7 6 5 7 6 10 14 15 18 19 8 7 7 3 5 3 2 3 3 4 3 2 4 1 3 3 5 10 11 12
5 5 5 6 5 5 13 13 13 6 5 7 8 7 7 6 6 7 6 7 7 8 11 10 11 9 8 5 6 5 4 2 2 3 3 4 1 3 3 2 9 12 12
4 5 4 6 7 7 12 14 13 7 7 7 6 7 7 7 10 13 7 8 9 10 11 19 21 18 18 17 11 3 4 4 6 3 2 2 2 3 2 3 2 9 11
4 3 4 4 5 4 9 12 10 4 7 5 7 8 13 10 14 16 9 8 10 9 7 5 5 12 15 12 18 10 6 6 7 4 3 5 1 1 4 2 2 2 3
Wind_Direction
156 148 143 134 127 116 97 72 53 29 19 5 2 359 344 330 324 322 316 318 319 323 323 314 304 300 295 290 280 318 96 66 42 33 36 49 58 49 55 60 57 78 70
154 154 149 153 141 133 115 95 61 33 10 359 347 349 332 323 320 311 306 312 316 325 325 313 341 341 339 321 277 258 261 348 9 17 16 9 21 29 36 27 31 50 51
165 158 158 161 161 144 117 87 56 47 17 356 338 325 316 317 309 314 299 277 309 331 346 9 352 11 19 30 27 26 26 37 358 7 14 5 358 359 6 17 2 7 17
163 156 154 165 154 136 130 103 71 23 7 355 317 309 305 307 301 304 303 268 256 344 0 43 32 14 8 4 8 11 350 15 12 11 330 358 358 355 351 360 8 3 1
163 151 159 161 152 140 124 126 91 75 347 331 307 299 295 294 285 314 299 262 234 134 60 56 53 31 13 5 349 4 348 10 30 357 338 338 323 321 329 337 339 340 339
162 155 154 155 151 132 122 99 102 63 272 307 307 301 295 297 285 254 276 256 182 131 89 72 51 19 32 25 325 335 26 33 27 349 321 314 307 305 306 306 312 312 318
162 161 158 155 153 150 158 146 123 94 353 358 329 330 347 358 19 21 13 138 132 123 105 84 79 46 12 38 340 38 22 9 5 337 318 313 315 302 293 289 283 290 293
164 164 163 166 162 144 152 141 143 128 198 34 124 114 348 331 12 21 44 125 122 120 109 94 91 74 56 19 331 50 13 332 320 319 311 310 307 297 299 290 289 281 282
169 165 169 163 163 158 174 172 167 167 178 235 124 142 225 244 326 354 35 38 119 75 77 99 103 99 90 71 60 64 25 340 323 301 303 304 305 303 303 303 300 293 288
171 168 165 165 163 161 167 179 176 172 143 196 21 70 206 149 192 322 15 13 13 154 160 22 92 120 118 113 100 59 358 326 305 291 289 295 296 301 315 317 312 311 307
168 167 168 164 167 170 169 176 158 158 171 164 174 135 80 63 153 158 271 307 348 296 245 178 154 120 118 112 93 15 342 317 297 279 281 280 289 295 306 319 328 327 332
169 174 169 166 171 170 173 181 180 167 161 157 159 156 174 164 180 179 214 262 277 283 258 200 181 145 160 131 57 5 329 318 303 283 277 277 277 279 287 301 311 325 333
175 186 166 168 172 172 180 171 168 170 160 169 176 187 181 190 143 150 106 319 293 292 295 275 240 149 159 189 87 350 316 304 302 289 274 275 270 268 277 279 291 306 318
177 163 169 171 172 170 171 172 173 170 158 165 169 170 178 193 158 156 131 136 267 294 318 247 324 144 139 187 79 325 302 299 295 285 277 267 269 267 269 268 282 302 303
151 160 167 164 164 167 168 166 167 168 152 168 173 158 170 195 143 123 113 189 201 245 271 312 108 137 142 191 285 303 282 289 290 285 279 268 259 263 259 261 260 271 311
140 151 155 153 153 146 149 158 156 169 157 171 151 165 186 187 174 152 156 202 198 246 245 205 351 62 150 287 302 263 284 291 292 280 273 262 255 245 242 237 237 222 210
141 147 155 153 160 160 164 155 170 169 173 174 151 183 203 193 193 179 195 206 223 218 246 266 246 308 314 327 321 285 276 283 279 285 274 257 251 247 237 224 215 213 211
142 154 151 160 169 177 177 181 187 187 191 188 182 204 213 205 202 189 205 213 208 225 227 253 219 230 272 313 273 288 272 248 257 269 284 265 252 257 244 233 228 221 227
149 154 157 175 182 187 184 190 187 192 197 198 194 207 214 200 209 201 204 210 212 223 221 240 259 208 215 56 322 298 276 290 251 266 284 269 240 240 239 268 245 235 228
155 171 170 180 178 181 188 193 195 200 204 202 202 208 210 207 213 202 205 214 196 208 222 236 235 243 226 240 3 274 304 287 284 282 289 253 238 243 255 291 261 235 228
172 170 172 179 186 189 196 198 200 200 207 212 207 208 216 212 221 217 206 209 192 214 225 231 242 228 223 211 202 247 258 299 282 209 303 292 283 276 282 286 253 234 218
164 159 190 201 194 193 215 223 204 209 207 211 214 214 217 215 228 236 228 218 212 208 225 221 232 235 227 186 188 199 202 28 314 293 85 278 175 270 272 245 244 230 225
150 189 201 204 206 202 229 234 238 205 209 211 214 212 210 207 207 221 243 245 240 227 225 216 224 219 211 197 182 193 210 185 221 265 90 275 255 271 250 255 239 227 236
196 200 205 211 219 224 234 238 239 236 221 218 216 210 206 192 191 206 213 230 238 246 241 234 221 228 225 209 189 189 205 210 306 277 137 257 244 256 296 270 258 256 246
201 205 206 199 207 223 233 232 233 233 236 231 215 210 207 213 207 230 210 222 237 246 256 251 251 245 240 239 226 154 207 264 283 259 239 156 272 280 281 284 281 270 252
204 200 227 213 209 216 241 240 234 211 226 216 216 214 210 213 220 223 225 228 237 239 225 247 263 254 248 245 243 219 204 214 234 307 238 179 224 157 323 283 307 331 360